Theta_e
317 317 318 318 319 319 319 320 321 323 326 326 322 320 316 313 312 314 311 310 309 308 307 307 307 306 305 304 304 304 303 303 305 303 303 305 308 308 307 309 309 310 311
312 314 316 318 319 321 320 319 318 318 318 319 318 319 316 313 311 311 308 308 307 307 307 305 305 305 303 303 303 303 303 303 305 301 300 299 302 306 307 308 309 310 310
309 313 316 319 320 317 315 313 312 311 311 312 313 313 314 313 310 307 304 304 305 305 305 305 304 304 303 301 302 303 304 301 304 305 301 297 296 299 305 306 307 308 307
310 313 319 317 315 313 312 310 310 311 310 310 310 309 308 310 307 302 301 302 304 304 305 304 304 303 303 303 303 304 303 303 300 302 303 303 302 296 296 302 304 307 307
310 318 315 312 310 309 307 307 307 306 307 307 307 308 308 306 301 299 299 300 301 303 303 304 304 303 304 304 304 304 303 303 302 301 301 301 301 301 298 295 300 304 306
314 312 309 307 306 306 306 305 305 305 306 306 306 306 302 299 297 297 298 299 300 301 303 303 303 303 304 304 304 304 303 302 302 302 302 300 299 298 298 297 298 298 302
309 306 304 304 304 304 305 305 305 304 305 304 303 302 299 298 298 297 297 297 298 299 301 304 304 303 304 303 303 303 302 302 301 301 301 302 301 302 300 299 298 297 300
306 305 304 303 303 303 304 304 303 303 303 301 300 300 299 298 298 297 297 297 297 299 304 304 304 303 304 304 304 303 303 303 302 302 302 302 302 302 301 300 298 295 297
302 301 301 301 301 300 301 301 302 302 301 299 298 298 298 298 297 298 298 298 299 301 304 303 303 304 304 305 305 304 303 304 303 303 303 303 303 303 303 302 301 298 293
301 301 300 300 300 301 303 302 300 299 299 298 297 298 298 298 298 298 298 299 300 302 303 303 303 304 304 304 305 304 305 305 306 306 305 305 305 305 304 303 302 302 298
300 300 300 302 302 302 300 300 299 298 297 297 297 297 297 297 298 298 299 300 301 302 303 303 302 303 303 304 303 303 305 304 305 306 305 305 306 306 305 304 303 302 301
301 301 302 302 302 299 298 298 298 298 298 297 297 296 296 297 297 298 299 300 300 301 301 303 302 302 302 302 301 301 304 304 303 304 304 305 306 307 306 304 303 303 303
299 300 300 300 299 297 298 297 298 297 297 297 297 297 297 297 297 297 299 299 299 298 298 301 302 302 302 302 301 301 303 304 304 303 303 303 306 307 307 305 303 304 305
300 300 299 298 298 299 298 298 297 297 297 297 296 296 297 297 296 297 297 298 297 296 296 299 302 303 302 301 301 301 302 304 304 304 304 303 305 306 307 307 305 305 304
301 300 298 297 297 297 297 298 297 297 296 296 296 296 297 297 298 297 296 295 295 295 296 299 300 300 301 300 300 301 302 303 304 303 303 303 306 308 308 307 306 306 304
301 300 299 298 297 297 298 297 296 296 296 296 296 297 297 298 297 296 294 293 293 293 296 297 296 296 297 298 299 300 301 303 302 302 302 302 303 303 305 306 308 308 305
301 299 298 298 298 298 297 296 296 296 295 295 296 297 297 298 298 294 293 292 292 293 294 295 294 294 295 297 297 299 300 303 302 302 301 300 301 301 300 304 305 306 306
301 300 299 298 298 298 298 297 297 296 295 295 296 297 298 297 297 293 292 292 291 292 292 293 293 294 295 296 296 298 299 302 302 302 301 300 300 300 299 302 302 303 305
300 300 298 298 297 297 297 296 295 295 295 296 296 297 298 297 297 293 292 292 291 291 292 293 293 293 294 295 296 297 298 300 300 301 300 299 297 297 297 300 299 300 302
300 298 298 298 298 297 297 295 295 294 295 296 297 297 297 296 296 293 292 292 291 292 292 293 293 294 293 294 295 296 297 297 298 298 298 298 296 296 295 297 297 296 298
300 300 299 299 298 297 296 295 294 294 296 297 296 296 296 295 296 293 292 292 292 292 292 292 293 295 295 296 295 295 296 296 296 296 295 296 295 294 294 295 295 295 298
300 299 298 297 297 296 295 294 294 296 297 297 296 295 295 295 296 293 292 292 292 292 291 291 292 295 296 296 295 294 294 296 295 294 295 295 294 293 293 294 294 294 297
299 299 297 296 296 297 296 295 295 297 296 294 294 293 294 295 296 293 292 291 291 291 291 291 290 292 295 296 295 294 294 295 295 295 296 294 293 293 294 294 294 295 295
299 298 297 297 297 298 298 296 297 297 294 293 293 292 293 294 292 293 292 290 290 291 291 291 290 291 293 295 295 295 296 295 295 295 295 295 294 293 294 294 294 294 294
299 298 297 296 297 298 298 297 298 298 295 293 292 292 292 291 291 291 292 292 292 292 292 291 290 290 292 294 293 292 294 294 293 293 294 293 293 292 292 292 292 293 293
297 296 296 296 298 298 298 298 299 298 296 295 294 292 291 291 290 290 290 291 291 291 291 290 290 292 292 292 292 292 292 291 291 293 292 292 292 291 290 290 290 291 291
Wind_Speed
5 4 5 6 7 7 8 6 8 5 4 2 3 3 4 4 6 6 8 7 7 7 5 4 5 4 5 6 7 6 8 7 7 9 9 8 10 9 6 5 6 9 8
5 7 8 6 5 8 8 9 9 8 5 3 3 3 3 4 4 4 5 7 7 7 7 5 5 6 5 7 7 7 8 7 6 7 10 7 6 1 7 10 8 10 7
5 7 8 8 9 11 12 12 11 10 9 6 3 4 4 2 3 6 4 5 7 6 6 6 6 6 5 6 7 8 9 9 7 7 4 5 4 9 5 4 10 9 8
5 7 10 11 12 13 14 14 13 11 10 8 9 10 4 4 4 3 3 5 5 6 6 7 7 7 6 7 7 9 8 9 9 7 6 9 10 6 6 2 10 11 11
5 13 15 16 16 14 14 12 13 12 10 11 10 6 5 3 2 2 5 4 6 8 9 8 9 8 7 8 9 10 9 8 8 7 7 8 8 10 7 10 10 9 7
18 18 16 16 15 12 12 11 11 10 9 9 9 6 4 3 3 3 4 5 7 7 9 9 7 8 9 9 9 10 10 10 9 8 8 7 6 7 7 7 10 13 9
14 15 15 13 11 11 11 11 8 7 8 7 7 4 4 3 3 3 4 7 5 5 9 10 10 9 10 10 10 10 11 10 9 10 8 8 8 8 9 9 9 8 9
13 13 11 9 9 9 9 7 11 5 6 5 6 3 5 2 2 4 3 3 3 6 8 9 9 10 11 10 10 8 8 10 9 12 10 9 9 8 8 7 7 9 7
8 10 10 9 9 7 7 10 8 5 6 6 3 4 2 5 4 5 4 4 4 6 8 8 9 10 11 10 10 7 9 9 9 10 10 9 8 7 7 7 7 6 6
7 8 7 6 4 3 3 7 9 8 7 5 3 2 4 4 5 5 7 6 6 7 8 8 9 9 10 11 11 9 9 10 8 7 10 9 7 8 6 6 5 6 6
7 7 4 5 5 5 5 4 4 9 6 3 2 5 5 5 5 5 6 6 6 7 8 8 9 8 10 11 10 10 11 11 11 11 10 10 10 7 5 4 5 5 6
7 5 6 5 3 4 1 1 6 6 3 3 4 4 5 5 5 6 7 6 7 7 7 7 7 8 8 9 10 10 11 11 12 13 12 11 9 9 6 4 5 6 6
7 6 5 4 4 3 2 3 4 4 2 4 3 4 5 5 6 6 7 8 7 8 7 7 7 8 8 9 10 9 10 10 10 11 12 13 13 10 9 4 4 6 5
8 6 5 4 3 3 2 2 3 2 4 4 4 4 5 5 5 6 8 8 7 7 7 7 7 7 8 7 10 10 10 10 10 11 11 11 13 13 11 8 6 5 6
8 6 5 4 3 2 1 3 3 3 4 5 5 6 5 5 5 7 8 8 7 7 6 6 7 7 7 6 11 10 9 9 10 10 10 10 16 22 17 9 9 8 6
10 8 7 6 5 3 2 2 3 4 4 5 5 6 6 5 6 6 8 7 8 7 5 6 7 8 7 15 19 13 8 8 7 9 10 10 15 16 19 16 14 11 9
11 9 8 6 6 3 5 1 3 4 5 4 5 6 5 5 5 6 7 7 7 5 6 7 7 8 8 17 18 19 6 6 6 8 9 10 10 15 13 14 12 10 12
11 8 6 6 5 3 2 2 4 4 4 5 5 5 5 5 4 5 6 6 4 5 5 6 7 7 8 17 18 18 7 6 6 7 8 9 11 14 15 10 10 9 8
9 8 7 5 5 4 0 4 4 5 4 5 5 6 5 4 3 4 5 4 4 4 4 4 7 7 8 16 17 14 9 8 6 6 7 10 10 18 19 10 10 9 9
10 10 8 4 5 5 2 3 4 4 5 5 7 6 5 4 3 3 3 3 3 3 5 7 6 9 8 11 16 14 6 9 7 7 7 12 13 15 17 10 10 9 9
11 9 7 5 4 5 6 2 3 5 5 5 5 5 5 4 4 3 2 2 3 4 5 7 8 7 6 9 14 16 8 7 6 5 7 7 15 14 14 12 9 9 10
10 8 5 4 4 5 3 3 3 5 5 5 5 6 6 4 3 4 3 1 3 3 4 5 6 6 8 10 12 14 13 12 6 7 6 7 13 13 12 10 14 13 10
8 6 6 5 3 4 4 1 3 5 5 5 6 6 6 5 4 4 4 2 2 3 3 3 5 6 6 7 12 12 13 12 7 6 9 11 11 10 8 12 14 11 7
8 6 7 6 5 4 4 3 3 3 4 5 6 6 5 6 5 3 2 2 3 3 3 3 5 6 5 6 6 7 7 10 9 11 8 10 9 8 9 9 8 6 7
5 4 5 5 4 3 3 2 3 2 4 4 4 5 4 5 5 4 4 3 4 4 3 3 3 5 6 5 8 8 7 7 8 9 6 6 7 7 8 8 8 7 6
4 3 3 3 3 3 2 3 3 3 3 4 4 4 4 4 3 4 6 5 9 7 7 9 8 6 9 12 12 12 14 14 12 6 6 7 6 6 7 8 8 7 7
Wind_Direction
216 150 153 121 107 80 90 93 97 82 100 111 117 97 89 73 56 43 35 23 7 360 353 346 341 340 335 322 315 310 316 311 297 308 307 295 287 276 293 287 295 296 298
177 145 144 117 98 101 87 78 75 66 57 58 52 82 100 92 96 56 28 6 356 347 349 334 330 321 317 316 313 306 310 310 308 305 300 321 308 74 316 316 306 296 317
180 152 136 113 93 80 80 75 66 60 52 52 71 60 57 59 27 18 358 345 337 333 327 326 317 315 311 307 303 301 304 308 305 297 287 310 289 325 272 283 290 288 305
166 135 106 79 81 79 74 68 62 56 48 34 58 65 62 16 355 346 307 324 316 319 331 331 329 318 307 304 308 311 298 299 295 295 266 266 281 300 305 275 286 290 284
108 82 88 88 76 68 72 69 68 60 50 53 48 35 37 21 347 322 322 315 331 344 343 334 328 318 308 310 307 310 308 297 289 285 288 280 277 271 270 289 292 291 289
79 83 84 89 88 84 80 74 69 62 58 52 51 23 36 41 15 331 338 343 352 337 327 323 318 314 315 317 313 307 301 297 291 286 282 275 278 283 279 284 286 294 303
88 90 92 94 99 100 105 95 71 79 69 61 63 355 39 36 360 340 354 348 336 318 318 327 328 320 319 309 301 300 296 293 288 287 283 275 269 268 270 274 279 280 297
99 104 101 91 77 73 80 91 95 88 63 78 69 11 19 12 349 350 327 300 282 304 310 320 318 317 312 311 309 303 295 292 288 287 281 278 273 267 264 260 277 288 285
93 100 107 115 121 118 127 105 118 101 80 48 51 36 349 21 342 318 295 272 291 314 314 318 324 324 319 320 319 307 302 302 300 292 286 278 274 267 262 255 252 263 290
122 115 114 120 113 100 74 117 124 105 80 69 21 1 351 337 303 293 292 311 305 301 307 320 327 325 324 329 325 323 322 322 317 308 307 300 289 277 260 254 250 244 259
142 145 122 62 53 53 30 21 79 87 88 90 7 6 316 308 296 293 301 300 299 305 317 315 317 324 332 330 330 337 333 332 329 329 325 315 314 306 267 249 246 255 250
146 121 117 126 90 64 57 185 69 81 80 53 1 309 296 321 310 318 313 307 317 318 314 311 310 321 333 330 334 331 330 334 338 337 335 333 321 315 283 248 247 253 260
139 144 135 108 103 112 90 60 74 53 11 31 336 318 330 340 322 312 312 329 322 320 323 326 316 318 323 331 333 327 321 327 331 335 341 337 341 344 342 262 258 268 265
157 134 109 127 121 92 94 118 66 33 15 3 340 337 348 317 310 332 331 330 322 321 332 325 315 314 317 328 338 332 326 327 333 336 339 342 348 351 352 358 321 283 279
157 137 150 132 91 75 235 118 51 10 9 2 345 333 321 316 351 342 341 323 336 340 332 334 337 333 328 338 342 335 326 323 336 341 344 346 356 359 354 3 5 360 347
152 156 146 139 135 139 317 355 52 359 15 347 323 313 320 336 14 331 343 330 354 355 352 354 344 336 340 338 347 348 325 326 342 344 345 349 355 350 347 346 353 2 9
156 155 160 153 139 175 154 335 359 360 343 341 311 303 311 3 343 354 337 347 354 340 345 342 340 342 336 347 347 348 329 337 347 344 351 354 354 356 343 342 349 352 353
151 143 122 132 122 104 56 323 5 339 334 329 302 304 347 358 331 8 340 344 345 338 330 329 341 340 343 348 348 350 340 351 338 346 357 357 354 354 348 345 353 352 2
122 127 133 131 128 136 169 39 347 319 323 319 316 330 350 323 4 332 333 335 333 338 337 325 340 343 342 346 350 353 350 343 348 354 351 6 354 349 350 1 357 351 357
129 131 126 126 136 157 99 51 295 309 322 331 320 315 315 328 299 272 311 322 309 331 347 348 343 339 339 342 353 358 343 350 346 349 355 3 358 349 355 358 357 351 345
125 125 131 142 208 132 100 258 295 313 311 306 312 320 326 336 257 257 252 313 336 3 3 357 346 337 346 347 358 356 352 346 336 346 350 350 349 348 354 352 1 349 330
128 130 138 171 168 107 128 250 302 301 317 322 319 332 342 329 261 253 266 294 334 357 4 356 346 332 342 350 352 351 355 345 345 348 343 341 342 342 343 353 349 347 347
147 152 142 142 135 162 196 279 308 336 324 336 343 338 335 322 300 269 269 273 296 312 325 338 334 326 330 338 341 340 341 339 339 336 323 325 326 332 341 347 355 355 355
157 153 154 156 158 202 212 227 303 309 8 358 343 337 332 325 317 297 263 252 258 272 292 320 319 319 321 326 333 328 327 331 338 335 328 328 333 345 339 346 351 354 355
134 142 164 166 183 194 250 342 323 9 3 342 327 327 322 320 313 303 275 252 238 214 264 285 287 310 315 310 311 307 320 324 312 314 320 331 339 339 345 353 348 353 351
140 152 175 163 200 194 283 342 339 45 0 316 326 324 323 314 327 323 321 243 246 262 256 266 257 300 260 286 303 312 311 315 317 320 315 317 323 331 335 345 343 353 348